Location: Breungeshain
(50.5000°N, 9.2000°E)
Time: 20:43:12
(UTC+00:00)

ISS - Pass Details

Date: 20 May 2017
Orbit: 401 x 408 km, 51.6° (Epoch: 25 June)

Event Time Altitude Azimuth Distance (km) Brightness Sun altitude
Exits shadow 00:10:42 64° 245° (WSW) 455 -3.8 -18.6°
Maximum altitude 00:11:09 86° 165° (SSE) 414 -4.0 -18.6°
Drops below altitude 10° 00:14:27 10° 76° (ENE) 1,471 -0.7 -18.5°
Sets 00:16:27 0° 76° (ENE) 2,296 0.4 -18.4°
